Voltar ao catálogo

THOR ABLESTAR DEB

AtivoLEO
NORAD 530·DEBRIS·🇺🇸 United States

Lançado Jun 29, 1961 de Cape Canaveral Space Force Station

Loading…

Próximas Passagens (próximas 24 horas)

TLE

AtualizadoSource: Space-Track

Época: Sep 14, 2026, 14:27 UTC

1 00530U 61015FU  26257.60224232  .00000064  00000-0  94958-4 0  9993
2 00530  66.8779 106.4871 0072961 105.6267 255.2884 13.99464853320137

Acompanhe THOR ABLESTAR DEB em tempo real com AllMySat

Download on the App Store